BIOMASS

Last updated on Sun Jun 21 2026 00:02:53 GMT+0000 (Coordinated Universal Time)

1 63772U 25090A 26171.44261398 .00000148 00000+0 34623-4 0 9999 2 63772 98.0744 358.7127 0001448 95.6178 264.5192 14.67536927 61168
UTC large
Height (km)
Speed (km/s)
/
Latitude / Longitude
Inclination (degrees)
Orbital Period (minutes)
Azimuth
Elevation
Range (km)
Doppler Factor

Next 0 passes for location: London (51.5072 / 0.1276)

No passes found over London.
BIOMASS